TimeEDT,TemperatureF,Dew PointF,Humidity,Sea Level PressureIn,VisibilityMPH,Wind Direction,Wind SpeedMPH,Gust SpeedMPH,PrecipitationIn,Events,Conditions,WindDirDegrees,DateUTC
12:53 AM,36.0,27.0,70,30.25,10.0,Calm,Calm,-,N/A,,Clear,0,2013-04-15 04:53:00
1:53 AM,36.0,28.0,73,30.25,10.0,WSW,3.5,-,N/A,,Clear,240,2013-04-15 05:53:00
2:53 AM,35.1,28.0,76,30.25,10.0,WSW,3.5,-,N/A,,Clear,240,2013-04-15 06:53:00
3:53 AM,35.1,28.0,76,30.26,10.0,Calm,Calm,-,N/A,,Clear,0,2013-04-15 07:53:00
4:53 AM,34.0,27.0,75,30.30,10.0,Calm,Calm,-,N/A,,Clear,0,2013-04-15 08:53:00
5:53 AM,34.0,28.0,79,30.32,10.0,WSW,3.5,-,N/A,,Partly Cloudy,250,2013-04-15 09:53:00
6:53 AM,36.0,28.9,76,30.34,10.0,Calm,Calm,-,N/A,,Partly Cloudy,0,2013-04-15 10:53:00
8:53 AM,42.1,28.0,58,30.38,10.0,NNE,3.5,-,N/A,,Overcast,20,2013-04-15 12:53:00
9:53 AM,46.0,28.0,50,30.39,10.0,NE,3.5,-,N/A,,Clear,50,2013-04-15 13:53:00
10:53 AM,48.0,26.1,42,30.37,10.0,SE,5.8,-,N/A,,Clear,140,2013-04-15 14:53:00
11:53 AM,50.0,28.0,43,30.36,10.0,SE,4.6,-,N/A,,Partly Cloudy,140,2013-04-15 15:53:00
12:53 PM,53.1,28.9,40,30.34,10.0,ESE,5.8,-,N/A,,Clear,110,2013-04-15 16:53:00
1:53 PM,53.1,28.0,38,30.34,10.0,SE,6.9,-,N/A,,Clear,140,2013-04-15 17:53:00
2:53 PM,55.9,30.0,37,30.32,10.0,SSE,8.1,-,N/A,,Clear,150,2013-04-15 18:53:00
3:53 PM,55.9,30.9,39,30.32,10.0,Variable,5.8,16.1,N/A,,Clear,0,2013-04-15 19:53:00
4:53 PM,55.0,33.1,43,30.30,10.0,SE,11.5,-,N/A,,Clear,140,2013-04-15 20:53:00
5:53 PM,54.0,30.0,40,30.33,10.0,South,9.2,-,N/A,,Clear,180,2013-04-15 21:53:00
6:53 PM,52.0,28.9,41,30.34,10.0,South,8.1,-,N/A,,Clear,180,2013-04-15 22:53:00
7:53 PM,50.0,28.9,44,30.35,10.0,South,6.9,-,N/A,,Clear,190,2013-04-15 23:53:00
8:53 PM,48.0,30.0,50,30.37,10.0,SE,5.8,-,N/A,,Clear,140,2013-04-16 00:53:00
9:53 PM,46.9,30.0,52,30.38,10.0,South,4.6,-,N/A,,Clear,170,2013-04-16 01:53:00
10:53 PM,45.0,30.0,56,30.39,10.0,Variable,4.6,-,N/A,,Clear,0,2013-04-16 02:53:00
11:53 PM,44.1,30.0,58,30.39,10.0,Calm,Calm,-,N/A,,Clear,0,2013-04-16 03:53:00